Location: Dodgeville, WI 53533, USA
(43.0344°N, 90.0900°W)
Time: 05:05:20
(UTC-06:00)

X-37B - Pass Details

Date: 29 January 2021
Orbit: 383 x 391 km, 45.0° (Epoch: 27 February)

Event Time Altitude Azimuth Distance (km) Brightness Sun altitude
Rises 18:31:05 0° 286° (WNW) 2,273 5.7 -15.1°
Reaches altitude 10° 18:33:11 10° 282° (WNW) 1,418 4.5 -15.4°
Maximum altitude 18:36:19 56° 203° (SSW) 470 1.1 -16.0°
Enters shadow 18:37:43 28° 136° (SE) 763 1.7 -16.3°
